星链-4000 (STARLINK-4000 )

导读

STARLINK-4000是美国SpaceX公司星链星座的第4000颗卫星,于2022年5月14日发射升空,进入近地轨道运行。它属于星链大规模卫星互联网项目的组成部分,依托低轨星座布局,为全球提供高速低延迟宽带互联网服务,覆盖偏远地区与陆海空移动场景,同时也可支撑军事通信、应急通信需求,不过其大规模部署也引发了太空安全与天文观测相关争议。

Basic Information
目录编号:
52605
目录名称:
STARLINK-4000
国际标识:
2022-052H
轨道中心:
EARTH
卫星名称:
星链-4000
卫星全名:
星链-4000 (STARLINK-4000 )
卫星状态:
在轨 (已飞行1582 天)
发射日期:
2022-05-14 UTC
国别 :
美国 (US)
星等 :
--
This satellite is enrolled in the Space Conjunction Data Service (SCDS) and the current flight risk assessment level is: No High Risk
Orbit Information
数据来源 国际轨道数据 AOE轨道数据
星历时间 2026-09-12T08:22:31+0800
8小时前
查看轨道信息
2026-09-06T00:00:00+0800
6天前
查看轨道信息
半长轴 6840.842km 6840.871km
偏心率 0.0001456 0.0002136
轨道倾角 53.160° 53.155°
近地点辐角 91.289° 78.073°
升交点赤经 155.053° 184.731°
平近点角 268.828° 111.941°
近地点 461.708km 461.272km
远地点 463.702km 464.196km
周期 93.848分钟 93.848分钟
每日圈数 15.343997 15.343898
Detailed Information
固有亮度:
5
最大亮度:
2.5
卫星平台:
Starlink v1.5
覆盖范围:
全球
运营商:
太空探索技术公司
运营商所在国:
美国
制造商(研发单位):
太空探索技术公司
制造商所在国:
美国
使用方式:
暂无
Satellite Introduction
星链(Starlink)计划是由太空探索技术公司(SpaceX)提出的一个巨型低轨卫星互联网星座项目,计划在2019年至2024年间在太空搭建由约1.2万颗卫星组成的“星链”网络,其中1584颗将部署在地球上空550千米处的近地轨道,并从2020年开始工作。该卫星仍在工作。
2D Orbit Map
3D Orbit Map
Orbit Altitude Analysis Chart
Orbit Inclination Analysis Chart
Orbit Comprehensive Analysis Chart
View Comprehensive Chart
Miss Distance Evolution Trend with All Objects
Collision Probability Evolution Trend with All Objects